OneWeb SL0119

operational
NORAD ID: 47278 Int'l Des: 2020-100 Owner: ONEWEB Country: UK Constellation: oneweb
LEOCIRCULARPOLARONEWEB_TYPE

OneWeb SL0119について

説明を読み込み中...

リアルタイム位置

3D地球を読み込み中...

次回通過

高度履歴

Altitude vs Time

uPlot chart will show altitude changes over time

軌道要素

1 47278U 20100W 25350.62759095 .00000360 00000-0 96384-3 0 9991
2 47278 87.8938 26.9432 0001825 95.1303 265.0034 13.12523030240631
Epoch: Dec 16, 2025 • Age: 21 hours

現在のステータス

高度 1226.0 km
速度 7.24 km/s
衛星直下点 -31.66°S, 62.24°W
打ち上げ日 Dec 18, 2020
運用期間 4.9 years
タイプ internet

技術仕様

分類 Payload
質量 148.00 kg
乾燥質量 140.00 kg
総質量 148.00 kg
長さ 1.30 m
直径 1.00 m
スパン 5.00 m
形状 Trapezoid+2 pan
製造者 ONEWUS
バスタイプ ARROW
フェーズステータス In Orbit
所有者/国 ONEWEB/UK

大規模コンステレーション

Loading constellations...